Tracking 28790 objects as of 19-Apr-2024
HD Live streaming from Space Station
objects crossing your sky now

COSMOS 1823 DEB

Track COSMOS 1823 DEB now!
10-day predictions


NORAD ID: 39808
Int'l Code: 1987-020EG
Perigee: 1,457.9 km
Apogee: 1,535.7 km
Inclination: 73.6 °
Period: 115.8 minutes
Semi major axis: 7867 km
RCS: 0.0205 m2 (small)
Launch date: February 20, 1987
Source: Commonwealth of Independent States (former USSR) (CIS)
Launch site: PLESETSK MISSILE AND SPACE COMPLEX (PKMTR)

Note: This is SATELLITE DEBRIS
Your satellite tracking list
Your tracking list is empty




NASA's NSSDC Master Catalog

Two Line Element Set (TLE):
1 39808U 87020EG  24109.45106066  .00000401  00000-0  29631-2 0  9997
2 39808  73.6229  28.6912 0049448 231.1850 128.4776 12.44010878448091
Source of the keplerian elements: AFSPC